Regional Weather Roundup
Issued by NWS Charleston, SC

Current Version | Previous Version | Graphics & Text | Print | Product List | Glossary On
Versions: 1 2 3 4 5 6 7 8 9 10 11 12 13 14 15 16 17 18 19 20 21 22 23 24 25 26 27 28 29 30 31 32 33 34 35 36 37 38 39 40 41 42 43 44 45 46 47 48 49 50
000
ASUS42 KCHS 051512
RWRCHS

REGIONAL WEATHER ROUNDUP
NATIONAL WEATHER SERVICE CHARLESTON SC
1000 AM EST MON DEC 05 2016

NOTE: "FAIR" INDICATES FEW OR NO CLOUDS BELOW 12,000 FEET WITH NO
SIGNIFICANT WEATHER AND/OR OBSTRUCTIONS TO VISIBILITY.

NOT ALL STATIONS ARE QUALITY CONTROLLED. USE DATA WITH CAUTION...
ESPECIALLY DEWPOINT OBSERVATIONS.

SCZ027-030-031-034>040-042>050-051600-
...SOUTHEAST SOUTH CAROLINA...

CITY           SKY/WX    TMP DP  RH WIND       PRES   REMARKS
N CHARLESTON   CLOUDY    53  50  89 N6        30.03R FOG
WATERFRONT PRK   N/A     54  54 100 N7        30.00R
MOUNT PLEASANT NOT AVBL
JOHNS ISLAND   CLOUDY    55  55 100 N5        30.01R FOG
PINOPOLIS        N/A     50  50 100 N7        29.94R
MONCKS CORNER  LGT RAIN  50  48  93 N5        30.02R
SUMMERVILLE    NOT AVBL
BEAUFORT MCAS  FOG       54  53  97 N8        30.03R VSB 1
BEAUFORT ARPT  CLOUDY    54  54 100 N7        30.02R FOG
HILTON HEAD IS CLOUDY    57  55  94 N9        30.02R FOG
WALTERBORO     CLOUDY    52 N/A N/A CALM      30.04R HAZE
ALLENDALE      PTSUNNY   50  48  93 CALM      30.01F

...SOUTHERN MIDLANDS AND PEE DEE...

CITY           SKY/WX    TMP DP  RH WIND       PRES   REMARKS
GEORGETOWN     NOT AVBL
KINGSTREE      CLOUDY    46  45  93 E5        30.01F
ORANGEBURG     CLOUDY    49  46  90 NE3       30.03R
BARNWELL       NOT AVBL
AIKEN          FAIR      46  45  93 CALM      30.04R
MANNING        NOT AVBL
COLUMBIA       PTSUNNY   50  45  83 CALM      30.02R
SUMTER         NOT AVBL
FLORENCE       CLOUDY    48  46  93 N6        30.03S
MYRTLE BEACH   NOT AVBL
N MYRTLE BEACH CLOUDY    50  49  96 N8        30.01R

$$

GAZ063-065-086>088-099>101-113>116-118-119-134>141-150-051600-
...SOUTHEAST GEORGIA...

CITY           SKY/WX    TMP DP  RH WIND       PRES   REMARKS
SAVANNAH ARPT  CLOUDY    56  53  90 N7        30.02R FOG
HUNTER AAF     NOT AVBL
FORT STEWART   NOT AVBL
STATESBORO     CLOUDY    52  51  98 CALM      30.02S
SYLVANIA       CLOUDY   N/A N/A N/A CALM      30.03F
CLAXTON        CLOUDY   N/A N/A N/A NW5       30.02S

...CSRA...CENTRAL AND FAR SOUTHEAST GEORGIA...

CITY           SKY/WX    TMP DP  RH WIND       PRES   REMARKS
THOMSON        CLOUDY    50  50  99 CALM      30.08R
AUGUSTA-BUSH   CLOUDY    50  46  86 CALM      30.03R
AUGUSTA-DANIEL PTSUNNY   50  45  83 CALM      30.03R
SWAINSBORO     CLOUDY    50  50 100 CALM      30.03R FOG
VIDALIA        CLOUDY    52  52 100 NE8       30.02S
EASTMAN        CLOUDY    52  52  99 CALM      30.05R
HAZLEHURST     FOG       53  53 100 N5        30.00S VSB 1
ALMA           FOG       58  58 100 N9        29.99R VSB 3/4
WAYCROSS       RAIN      74  74  99 SW5       29.97S
JESUP          CLOUDY    70  70 100 CALM      29.99R
BAXLEY         FOG       55  55 100 N8        30.00R VSB 3/4
BRUNSWICK      MOSUNNY   73  70  88 SW10G16   29.99R
SAINT SIMONS   PTSUNNY   70  66  87 SW8       29.99R

$$

SCZ027-028-034-036>038-045-046-048>050-GAZ119-141-051600-
...LAKE AND SUPPLEMENTAL COASTAL OBSERVATIONS...

STATION/POSITION TIME  TEMP    WIND        PRES    WAVE   SWELL
                       AIR SEA DIR/SP/G            HT/PER HT/PER/DIR
                 (UTC) (F)     (DEG/KT/KT) (MB)    (FT/S) (FT/S/D)
WINYAH BAY       NOT AVBL
LAKE MURRAY      1420   47      CALM  /  3 1015.9
ACE BASIN NERRS  1345   54     350/  3     1015.0
FORT PULASKI     1436   66 62  330/  4/  5 1015.8R
SAPELO ISLAND    1400   67     200/  9     1014.0

$$

ANZ835-935-AMZ111-154-330-350-352-354-370-450-454-472-051600-
...C-MAN AND BUOY OBSERVATIONS...

STATION/POSITION TIME  TEMP    WIND        PRES    WAVE   SWELL
                       AIR SEA DIR/SP/G            HT/PER HT/PER/DIR
                 (UTC) (F)     (DEG/KT/KT) (MB)    (FT/S) (FT/S/D)
BUOY 41004       1450   74 74  250/ 16/ 19 1014.5R   7/ 7   2/170/11
BUOY 41008       1450   68 65  210/ 12/ 14 1014.5R   4/ 6   2/100/ 8
FOLLY BEACH CMAN 1400   56     330/  8/ 12 1016.0R
CAPERS NEARSHORE 1408   58 62  350/ 12/ 17 1015.1R
FRIPP NEARSHORE  1408   60 62  360/ 14/ 19 1015.0R


STATION/POSITION TIME  TEMP    WIND        PRES    WAVE   SWELL
                       AIR SEA DIR/SP/G            HT/PER HT/PER/DIR
                 (UTC) (F)     (DEG/KT/KT) (MB)    (FT/S) (FT/S/D)
5E ST. MARYS GA  1500      65                N/A     3/ 5
FRYING PAN BUOY  1450   63 75  310/ 17/ 23 1015.1R   7/ 7   5/180/ 7
BUOY 41025       1450   60 74  340/ 19/ 25 1013.2R   6/ 7   5/180/ 7
CAPE LOOKOUT NC  1400   57     330/ 16/ 19 1013.8R
BUOY 41002       1450   72 73  200/ 17/ 21 1017.8R   5/ 5   2/ 10/ 8
BUOY 41010       NOT AVBL
ST AUGUSTINE FL  1500   69 68  170/  9/ 11 1016.7R


$$




USA.gov is the U.S. government's official web portal to all federal, state and local government web resources and services.